Location: Voyageurs National Park
(48.5020°N, 92.9292°W)
Time: 09:43:38
(UTC-05:00)

Cosmos 304 Rocket - Pass Details

Date: 19 January 2018
Orbit: 680 x 688 km, 74.0° (Epoch: 25 May)

Event Time Altitude Azimuth Distance (km) Brightness Sun altitude
Exits shadow 06:13:35 11° 338° (NNW) 2,062 5.9 -16.5°
Maximum altitude 06:18:13 86° 68° (ENE) 690 3.8 -15.7°
Drops below altitude 10° 06:22:59 10° 157° (SSE) 2,118 6.8 -15.0°
Sets 06:25:17 0° 158° (SSE) 3,030 7.6 -14.6°
